Location: Baix
(44.7118°N, 4.7648°E)
Time: 11:09:18
(UTC+00:00)

Cosmos 2322 Rocket - Pass Details

Date: 06 December 2022
Orbit: 834 x 849 km, 71.0° (Epoch: 31 January)

Event Time Altitude Azimuth Distance (km) Brightness Sun altitude
Rises 16:29:01 0° 326° (NNW) 3,390 5.4 -5.2°
Reaches altitude 10° 16:31:38 10° 318° (NW) 2,451 4.8 -5.7°
Maximum altitude 16:36:39 34° 255° (WSW) 1,334 4.2 -6.5°
Drops below altitude 10° 16:41:39 10° 191° (SSW) 2,438 5.1 -7.3°
Sets 16:44:15 0° 183° (S) 3,369 5.7 -7.7°
